This demonstration page uses our WeatherBlox Daily Observations layout. Learn more.

Left ArrowRight Arrow

38.20091, -84.87328

Hourly Observations for January 26, 2016

Temp ( °F °C ) Dew Point ( °F °C ) Humidity (%) Winds ( mph kmh ) Pressure ( in mb ) Visibility ( mi km ) Precip ( " mm )
12:53 am 00:53 Cloudy 48 8.9 37 2.8 66 66 SSW 15 24 29.93 1014 10 16 0.00 0.00
1:53 am 01:53 Mostly Cloudy 49 9.4 38 3.3 66 66 S 15 24 29.91 1013 10 16 0.00 0.00
2:53 am 02:53 Mostly Clear 50 10 39 3.9 66 66 SSW 16 26 29.91 1013 10 16 0.00 0.00
3:53 am 03:53 Cloudy with Light Rain 50 10 40 4.4 68 68 SSW 15 24 29.91 1013 8 13 0.00 0.03
4:27 am 04:27 Cloudy with Light Rain 48 8.9 43 6.1 83 83 WSW 14 22 29.97 1015 7 11 0.03 0.76
4:53 am 04:53 Cloudy with Light Rain 47 8.3 43 6.1 86 86 SW 12 19 29.93 1014 5 8 0.03 0.76
5:20 am 05:20 Cloudy 46 7.8 43 6.1 89 89 SW 12 19 29.97 1015 10 16 0.01 0.25
5:35 am 05:35 Cloudy 46 7.8 43 6.1 89 89 SW 12 19 29.97 1015 10 16 0.01 0.25
5:53 am 05:53 Cloudy 47 8.3 44 6.7 90 90 WSW 12 19 29.96 1015 10 16 0.01 0.25
6:44 am 06:44 Cloudy 45 7.2 40 4.4 83 83 W 14 22 30.03 1017 10 16 0.00 0.00
6:53 am 06:53 Cloudy 44 6.7 38 3.3 79 79 W 9 15 30.00 1016 10 16 0.00 0.00
7:08 am 07:08 Cloudy 43 6.1 37 2.8 80 80 W 9 15 30.03 1017 10 16 0.00 0.00
7:51 am 07:51 Cloudy 39 4 34 1 81 81 W 9 15 30.06 1018 10 16 0.00 0.00
7:53 am 07:53 Cloudy 39 3.9 33 0.6 79 79 WNW 9 15 30.05 1018 10 16 0.00 0.00
8:53 am 08:53 Cloudy 38 3.3 31 -0.6 76 76 WNW 7 11 30.07 1018 8 13 0.00 0.00
9:53 am 09:53 Cloudy 38 3.3 30 -1.1 73 73 W 9 15 30.10 1019 8 13 0.00 0.00
10:53 am 10:53 Cloudy 38 3.3 30 -1.1 73 73 W 9 15 30.11 1020 9 14 0.00 0.00
11:53 am 11:53 Cloudy 37 2.8 29 -1.7 73 73 WNW 10 17 30.12 1020 10 16 0.00 0.00
12:53 pm 12:53 Cloudy 37 2.8 29 -1.7 73 73 WNW 9 15 30.11 1020 10 16 0.00 0.00
1:53 pm 13:53 Cloudy 37 2.8 28 -2.2 70 70 W 8 13 30.12 1020 10 16 0.00 0.00
2:53 pm 14:53 Cloudy 37 2.8 28 -2.2 70 70 WNW 9 15 30.11 1020 10 16 0.00 0.00
3:53 pm 15:53 Cloudy 36 2.2 27 -2.8 70 70 W 7 11 30.14 1021 10 16 0.00 0.00
4:53 pm 16:53 Cloudy 36 2.2 26 -3.3 67 67 VRB 6 9 30.15 1021 10 16 0.00 0.00
5:53 pm 17:53 Cloudy 34 1.1 25 -3.9 70 70 WNW 8 13 30.18 1022 10 16 0.00 0.00
6:53 pm 18:53 Cloudy 34 1.1 25 -3.9 70 70 NW 5 7 30.19 1022 10 16 0.00 0.00
7:53 pm 19:53 Cloudy 34 1.1 25 -3.9 70 70 WNW 7 11 30.21 1023 10 16 0.00 0.00
8:53 pm 20:53 Cloudy 32 0 24 -4.4 73 73 WNW 9 15 30.23 1024 10 16 0.00 0.00
9:53 pm 21:53 Cloudy 32 0 24 -4.4 73 73 WNW 8 13 30.24 1024 10 16 0.00 0.00
10:53 pm 22:53 Cloudy 31 -0.6 23 -5 72 72 NW 10 17 30.24 1024 10 16 0.00 0.00
11:53 pm 23:53 Cloudy 31 -0.6 22 -5.6 69 69 WNW 8 13 30.27 1025 10 16 0.00 0.00

Powered by AerisWeather